Location: Heisler
(52.6701°N, 112.2239°W)
Time: 14:45:52
(UTC+00:00)

Envisat - Pass Details

Date: 07 December 2021
Orbit: 764 x 766 km, 98.2° (Epoch: 26 January)

Event Time Altitude Azimuth Distance (km) Brightness Sun altitude
Rises 13:38:11 0° 10° (N) 3,248 6.2 -15.3°
Reaches altitude 10° 13:40:37 10° 2° (N) 2,317 5.3 -14.9°
Maximum altitude 13:45:17 38° 296° (WNW) 1,171 3.4 -14.2°
Drops below altitude 10° 13:49:56 10° 230° (SW) 2,302 5.2 -13.6°
Sets 13:52:22 0° 223° (SW) 3,224 6.0 -13.2°
